Change the Weather History Date:

Thursday, March 6, 2014

  Actual Average Record
Temperature  
Mean Temperature 9 °F 31 °F  
Max Temperature 26 °F 39 °F 70 °F (1894)
Min Temperature -9 °F 23 °F -9 °F (2014)
Degree Days  
Heating Degree Days 56 34  
Month to date heating degree days 314 210  
Since 1 July heating degree days 5399 4996  
Cooling Degree Days 0 0  
Month to date cooling degree days 0 0  
Year to date cooling degree days 0 0  
Moisture  
Dew Point -1 °F    
Average Humidity 64    
Maximum Humidity 91    
Minimum Humidity 36    
Precipitation  
Precipitation 0.00 in 0.08 in 0.89 in (1932)
Month to date precipitation 0.12 0.46  
Year to date precipitation 3.74 4.82  
Snow  
Snow 0.00 in 0.70 in 18.40 in (1999)
Month to date snowfall 3.2 4.2  
Since 1 July snowfall 86.3 83.1  
Snow Depth 3.00 in    
Sea Level Pressure  
Sea Level Pressure 30.55 in    
Wind  
Wind Speed 6 mph (SE)    
Max Wind Speed 16 mph    
Max Gust Speed 20 mph    
Visibility 10 miles    
Events      
T = Trace of Precipitation, MM = Missing Value Source: NWS Daily Summary

Daily Weather History Graph

Daily Weather History Graph

Search for Another Location

Airport or City:

Trip Planner

Search our weather history database for the weather conditions in past years. The results will help you decide how hot, cold, wet, or windy it might be!

Date:

Astronomy

Mar. 06, 2014 Rise Set
Actual Time 6:38 AM EST 6:06 PM EST
Civil Twilight 6:10 AM EST 6:34 PM EST
Nautical Twilight 5:37 AM EST 7:07 PM EST
Astronomical Twilight 5:04 AM EST 7:40 PM EST
Moon 9:35 AM EST (3/6) No Moon Set
Length of Visible Light 12h 24m
Length of Day
11h 27m
Waxing Crescent, 32% of the Moon is Illuminated
Mar 6
Waxing Crescent
Mar 8
First Quarter
Mar 16
Full
Mar 23
Last Quarter
Mar 30
New

Hourly Weather History & Observations

Time (EST) Temp. Windchill Dew Point Humidity Pressure Visibility Wind Dir Wind Speed Gust Speed Precip Events Conditions
12:54 AM -0.0 °F - -4.0 °F 83% 30.63 in 9.0 mi Calm Calm - N/A   Clear
1:54 AM -2.0 °F - -6.0 °F 83% 30.64 in 9.0 mi Calm Calm - N/A   Clear
2:54 AM -4.0 °F -12.4 °F -9.0 °F 79% 30.64 in 7.0 mi SW 3.5 mph - N/A   Clear
3:54 AM -5.1 °F - -9.9 °F 80% 30.65 in 10.0 mi Calm Calm - N/A   Clear
4:54 AM -6.0 °F - -11.0 °F 79% 30.65 in 10.0 mi Calm Calm - N/A   Clear
5:54 AM -8.0 °F -16.9 °F -13.0 °F 79% 30.68 in 10.0 mi SW 3.5 mph - N/A   Clear
6:54 AM -8.0 °F - -11.0 °F 86% 30.68 in 9.0 mi Calm Calm - N/A   Scattered Clouds
7:54 AM -2.0 °F - -4.0 °F 91% 30.69 in 8.0 mi Calm Calm - N/A   Scattered Clouds
8:54 AM 7.0 °F - 1.0 °F 77% 30.69 in 9.0 mi Calm Calm - N/A   Partly Cloudy
9:54 AM 15.1 °F 3.3 °F 1.0 °F 54% 30.66 in 10.0 mi ESE 9.2 mph 18.4 mph 0.00 in   Partly Cloudy
10:54 AM 17.1 °F 4.3 °F 1.0 °F 50% 30.63 in 10.0 mi ESE 11.5 mph - N/A   Partly Cloudy
11:54 AM 19.0 °F 7.5 °F -0.0 °F 43% 30.60 in 10.0 mi SE 10.4 mph - N/A   Partly Cloudy
12:54 PM 21.0 °F 9.3 °F 1.0 °F 42% 30.57 in 10.0 mi East 11.5 mph - N/A   Partly Cloudy
1:54 PM 23.0 °F 11.7 °F 3.0 °F 42% 30.54 in 10.0 mi East 11.5 mph - N/A   Partly Cloudy
2:54 PM 24.1 °F 13.1 °F 5.0 °F 44% 30.50 in 10.0 mi East 11.5 mph - N/A   Clear
3:54 PM 25.0 °F 14.8 °F 5.0 °F 43% 30.47 in 10.0 mi East 10.4 mph - N/A   Clear
4:54 PM 25.0 °F 14.2 °F 3.9 °F 41% 30.45 in 10.0 mi ESE 11.5 mph 18.4 mph N/A   Partly Cloudy
5:54 PM 24.1 °F 17.0 °F 3.9 °F 42% 30.43 in 10.0 mi ESE 5.8 mph - N/A   Partly Cloudy
6:54 PM 24.1 °F 14.4 °F 1.9 °F 38% 30.42 in 10.0 mi SE 9.2 mph - N/A   Clear
7:54 PM 21.9 °F 11.7 °F 3.0 °F 44% 30.40 in 10.0 mi ESE 9.2 mph - N/A   Clear
8:54 PM 19.9 °F 11.1 °F 3.0 °F 48% 30.39 in 10.0 mi ESE 6.9 mph - N/A   Clear
9:54 PM 19.0 °F 9.0 °F 3.9 °F 52% 30.37 in 10.0 mi SE 8.1 mph - N/A   Clear
10:54 PM 19.9 °F 12.1 °F 3.0 °F 48% 30.34 in 10.0 mi SE 5.8 mph - N/A   Clear
11:54 PM 21.9 °F 12.5 °F 1.9 °F 42% 30.31 in 10.0 mi SSE 8.1 mph - N/A   Clear